Wetbulb
70.84 70.49 70.78 68.77 62.76 61.00 58.08 58.44 62.64 61.94 61.88 66.06 66.37 64.66 64.20 66.35 63.96 60.75 72.09 72.31 72.52 72.93 74.88 75.89 75.88 75.14 75.19 75.12 74.90 74.37 74.20 74.22 74.20 74.17 74.02 74.10 73.78 73.47 73.06 72.84 72.89 72.97 73.17 73.18 73.46 73.59 73.82 73.84 73.77
67.71 67.26 68.16 65.36 59.41 55.34 56.10 60.81 59.74 62.92 64.23 67.12 67.00 66.48 65.06 64.05 69.78 69.70 70.51 72.42 73.20 73.87 74.32 74.42 75.93 75.28 74.83 74.45 74.15 74.40 74.48 74.30 73.93 73.47 72.85 72.42 72.26 72.31 72.42 72.79 73.17 73.33 73.47 73.53 73.46 73.31 73.27 73.29 73.25
65.48 66.02 62.24 60.29 59.07 56.32 57.22 60.47 62.69 64.16 63.83 63.50 65.37 67.84 66.50 65.49 70.21 70.74 72.19 72.86 73.54 74.21 75.16 75.77 75.21 74.59 74.03 74.45 74.76 74.03 73.80 73.49 73.15 73.00 72.98 73.13 73.27 73.60 73.76 73.75 74.01 73.60 73.60 73.14 72.96 72.99 73.24 73.46 73.61
63.56 64.09 63.43 57.66 55.80 58.70 58.94 62.54 64.47 63.20 63.73 66.69 66.44 64.61 69.27 71.33 70.98 73.14 72.51 72.48 72.71 73.66 74.46 74.52 74.37 74.67 74.73 74.07 74.15 73.60 74.28 74.46 74.13 74.33 74.43 74.33 74.14 74.01 73.99 74.16 74.30 74.24 73.70 73.66 73.31 72.97 72.99 72.96 72.76
62.37 61.26 56.38 55.79 56.18 57.83 62.16 63.53 63.61 61.44 62.65 64.25 64.88 63.74 66.42 71.21 73.29 73.60 72.06 72.07 72.31 73.45 74.18 74.54 75.03 74.55 73.88 73.92 73.85 73.86 73.52 73.29 72.97 72.89 72.80 72.70 72.23 72.37 72.59 72.64 72.34 72.11 71.90 72.32 72.60 71.32 70.62 72.14 73.29
57.32 59.77 53.84 53.04 55.33 57.56 62.02 64.50 64.50 62.46 62.74 64.72 64.26 64.49 67.06 72.34 71.05 71.29 71.20 71.33 72.84 72.94 73.30 73.92 73.92 74.45 74.03 73.98 73.19 72.67 72.22 71.09 70.58 70.13 70.11 70.04 70.18 70.38 70.08 70.01 69.61 69.33 69.47 69.47 69.57 69.42 69.36 68.85 69.39
55.43 56.43 53.48 54.44 55.35 54.94 59.29 65.24 64.05 62.71 62.40 63.57 66.74 62.41 68.26 70.43 70.50 70.86 70.79 71.97 72.47 72.38 72.40 72.97 73.81 74.09 74.06 73.51 71.93 71.12 70.13 69.08 67.79 67.26 67.28 67.42 67.45 68.35 67.97 67.76 67.83 67.56 67.21 67.60 67.63 67.71 67.46 67.05 66.89
55.67 56.87 53.50 53.85 54.28 53.77 62.18 64.29 64.95 63.02 62.02 67.79 67.45 63.01 64.95 70.08 70.78 70.56 71.04 71.28 71.08 71.67 72.08 72.75 73.76 73.47 74.06 73.19 70.48 68.76 67.15 66.20 65.56 64.77 64.30 65.16 67.00 66.12 66.33 67.03 65.67 66.17 65.83 66.09 66.06 66.15 65.80 65.73 65.41
56.71 53.58 52.68 53.08 54.50 55.43 63.15 62.31 64.95 65.61 64.46 66.13 67.20 66.31 69.92 71.53 69.75 68.87 69.12 69.70 70.16 71.06 72.83 74.10 73.79 74.87 73.29 72.54 70.06 68.34 66.60 65.69 66.32 65.74 63.42 67.15 65.01 64.73 64.92 63.78 63.54 63.78 64.27 64.44 64.47 64.39 64.54 64.82 66.53
53.25 53.23 53.94 56.47 57.10 56.70 60.27 61.92 64.20 63.81 64.28 64.98 66.30 69.02 71.51 70.75 68.53 67.75 67.64 67.92 69.43 70.91 72.65 73.64 74.22 73.87 74.09 72.30 71.90 70.25 68.60 67.22 65.82 64.94 64.95 64.33 64.77 63.95 63.01 63.25 61.95 62.74 62.75 62.95 63.00 63.07 64.20 66.19 66.74
53.31 52.31 56.47 57.18 57.83 59.30 58.57 60.56 64.78 63.72 62.73 65.59 65.90 68.41 70.24 69.06 68.71 68.09 68.17 69.05 69.70 71.77 72.51 73.17 73.72 74.53 72.59 72.45 71.64 69.93 68.56 67.25 65.40 64.76 64.70 64.76 63.91 63.77 63.02 62.65 62.55 63.38 63.35 63.59 64.10 64.01 63.36 63.55 63.36
50.40 53.65 55.37 57.08 56.81 59.22 58.49 59.69 62.49 64.81 64.99 67.81 68.39 70.24 70.08 68.96 68.16 69.13 69.24 70.04 70.77 71.37 71.77 72.43 73.03 73.81 73.04 71.95 70.85 68.87 67.03 65.63 64.20 63.82 63.98 63.50 62.62 62.67 62.37 61.93 62.07 62.29 62.68 62.95 62.88 62.59 63.11 63.24 63.19
50.13 52.44 53.66 54.30 55.19 59.31 59.66 57.49 60.74 64.18 67.80 68.23 68.75 70.06 69.79 69.37 68.60 70.20 71.45 71.70 71.24 70.55 71.27 71.87 72.17 72.43 70.54 69.16 67.97 65.91 65.84 64.60 64.14 63.39 63.13 62.88 61.98 61.83 61.99 62.27 62.23 62.55 62.50 62.24 62.02 62.26 62.26 62.12 61.99
52.01 51.65 51.61 52.55 54.07 56.80 56.73 57.42 61.03 63.21 68.45 67.66 68.22 68.83 70.08 69.39 68.94 70.23 71.09 70.91 70.96 70.60 70.23 70.74 70.50 70.74 69.21 67.42 66.84 65.38 64.70 64.49 63.74 63.00 62.53 62.59 61.63 61.77 61.48 61.90 61.47 61.52 61.96 62.02 62.23 62.04 61.24 61.40 62.56
52.14 49.45 51.66 53.40 54.87 55.22 58.43 57.36 58.79 62.82 67.14 67.02 67.56 68.54 69.41 69.84 69.75 70.07 70.53 70.28 70.53 69.25 68.32 67.14 67.11 68.22 67.87 66.64 65.62 65.01 64.37 64.17 63.17 62.43 62.44 62.00 62.05 62.29 62.59 61.23 60.75 61.01 61.26 61.71 61.62 61.42 61.22 61.56 61.92
50.53 50.70 48.01 52.86 56.51 57.46 58.34 50.95 57.62 62.16 65.98 65.97 67.30 68.28 68.78 69.96 70.05 70.73 70.68 69.51 68.80 66.66 65.39 65.16 64.70 66.38 65.79 65.70 64.98 64.10 63.86 63.47 62.45 62.10 61.63 61.40 61.69 62.34 61.93 60.38 60.35 60.68 60.41 59.82 60.14 60.01 60.43 60.30 60.48
49.69 45.97 47.19 51.04 56.83 56.85 57.50 51.50 57.38 64.09 65.22 65.91 67.21 68.18 68.01 67.27 68.54 70.07 68.94 68.90 66.60 66.39 64.18 62.67 64.76 65.61 65.59 65.10 64.35 63.68 63.20 62.66 62.10 61.73 60.56 61.17 61.43 61.95 61.37 60.28 60.11 60.43 58.96 59.15 59.76 59.57 59.89 59.58 58.52
46.09 46.28 47.70 48.57 56.39 57.88 55.77 54.11 61.62 63.94 64.09 65.27 67.11 67.94 66.34 65.48 66.32 69.17 68.07 67.85 67.99 63.48 63.18 64.14 64.13 65.31 64.91 64.05 63.13 62.24 62.08 62.13 61.98 60.39 60.11 61.15 61.07 61.14 60.87 59.91 59.54 58.78 58.13 58.75 59.36 59.16 59.39 58.75 59.02
48.80 48.10 47.53 49.90 55.68 56.66 55.47 55.15 57.55 64.06 64.49 64.49 66.30 67.23 67.25 66.96 68.79 69.31 67.99 67.96 66.56 64.37 60.81 61.66 63.29 63.90 63.23 61.84 61.04 60.91 60.68 60.86 59.66 59.47 60.73 60.65 60.67 60.46 60.37 58.66 58.08 57.92 57.77 58.42 59.18 58.45 57.75 57.39 59.27
47.94 47.44 47.80 49.93 52.74 56.92 55.06 55.14 56.96 60.97 63.97 64.87 65.29 66.48 67.25 67.44 68.31 66.20 66.95 65.89 63.78 62.70 63.36 62.95 63.14 63.35 63.13 62.40 62.76 61.86 61.15 59.36 58.86 59.84 60.28 60.21 59.46 59.48 59.43 58.33 57.41 57.70 56.27 57.57 57.71 58.00 56.79 56.04 56.98
48.27 47.28 47.70 48.01 50.69 54.46 52.92 51.27 53.72 58.33 62.11 64.58 66.07 67.27 67.96 67.03 66.85 63.75 64.75 63.72 63.99 63.32 62.79 62.68 63.05 63.15 63.28 62.78 61.02 59.88 59.21 58.31 58.35 58.87 58.22 58.38 58.29 58.28 59.21 58.43 57.53 57.20 56.85 55.24 56.23 56.50 56.27 54.08 55.55
46.94 50.51 48.85 48.06 48.30 46.15 53.29 44.80 51.87 55.59 58.20 61.21 63.98 66.04 67.13 67.08 66.58 64.79 64.05 63.61 63.75 62.54 63.02 63.00 62.46 62.46 62.31 61.90 60.89 59.98 59.26 56.73 57.85 58.17 58.04 57.63 57.90 57.67 57.78 58.03 57.55 57.53 56.16 56.25 55.50 55.66 55.02 55.03 52.10
48.98 51.50 50.50 50.01 49.13 49.00 49.52 47.35 50.16 57.63 56.97 59.92 62.65 65.07 66.74 68.06 65.97 64.41 63.55 63.05 63.02 62.05 61.42 61.16 61.49 61.40 61.37 61.37 60.83 58.87 58.27 57.63 58.01 57.78 58.08 57.82 57.82 57.34 56.75 57.28 57.65 57.22 55.99 56.38 56.09 55.76 55.04 53.61 52.35
52.67 51.15 51.04 51.26 49.28 44.29 47.76 48.20 48.09 53.26 55.27 58.32 63.00 64.66 66.18 67.45 65.31 64.60 63.26 64.21 62.76 61.63 61.62 61.00 60.39 60.39 60.42 59.74 59.43 59.08 58.33 58.07 56.86 57.07 56.00 56.27 56.56 56.69 57.34 56.96 58.08 57.77 58.21 56.43 55.76 56.15 55.80 54.70 53.40
51.99 50.04 44.07 43.25 43.17 42.50 49.53 47.14 49.31 53.58 55.14 56.29 58.55 63.94 66.08 67.45 64.89 63.31 62.11 63.74 63.21 60.81 61.43 60.06 59.79 58.89 59.11 58.78 58.61 58.83 58.84 58.49 58.03 57.29 56.26 55.83 55.87 56.47 56.81 57.62 57.47 56.62 58.14 56.89 56.66 55.96 55.80 54.76 52.76
50.24 49.64 45.36 39.38 41.26 43.94 48.94 44.61 48.58 55.01 57.12 59.77 61.57 64.38 66.31 67.29 64.20 62.86 63.97 64.58 63.04 63.00 61.57 59.89 59.46 58.70 58.64 58.46 58.40 58.90 58.90 57.96 57.46 57.06 56.44 56.55 56.72 57.04 57.50 58.21 58.13 56.82 56.54 57.54 57.70 55.35 54.77 55.11 52.66
50.06 47.62 51.53 47.01 47.93 44.44 46.56 49.46 52.83 54.88 55.49 58.64 60.97 62.59 65.22 67.17 65.55 63.92 64.82 64.75 63.86 63.17 61.45 60.11 59.49 59.16 58.73 58.31 58.17 58.33 58.36 57.96 57.41 57.54 57.27 56.15 57.70 56.68 57.63 57.69 56.66 55.21 55.26 57.03 56.94 54.17 53.67 54.51 54.02
51.96 52.75 46.68 47.89 40.82 39.88 44.77 46.55 47.34 51.60 53.56 55.35 58.78 62.89 65.43 66.90 65.58 65.42 64.34 64.52 65.18 63.55 61.87 60.75 60.30 59.13 58.88 58.39 58.21 57.72 57.99 58.02 57.66 57.18 56.15 55.80 56.71 57.30 56.26 56.55 56.11 54.73 54.08 56.37 56.39 55.35 54.14 54.61 54.20
51.15 50.10 50.05 49.87 47.89 42.42 41.27 45.22 53.77 53.16 55.72 57.00 57.99 62.35 65.86 65.95 65.01 65.46 65.68 64.77 65.15 63.62 61.80 60.55 59.96 59.49 58.72 58.18 57.93 57.73 57.51 57.18 56.89 55.86 55.63 56.01 56.22 56.28 55.73 56.05 55.24 54.29 53.80 56.11 56.47 55.34 54.73 54.01 54.43
53.62 51.37 51.85 46.99 45.39 47.92 46.40 46.19 54.86 55.65 57.47 59.03 59.02 60.39 65.32 66.12 65.48 65.91 66.07 64.94 64.02 62.73 61.62 60.47 60.02 59.52 59.22 58.54 57.83 57.40 57.60 56.51 56.13 56.18 56.54 56.79 56.28 56.04 55.91 55.44 55.08 53.80 53.38 55.11 55.33 54.36 54.80 53.42 52.84
MSLP
1010.44 1009.74 1009.07 1008.07 1006.36 1004.36 1003.59 1004.73 1006.00 1006.84 1007.46 1008.55 1008.74 1008.42 1008.43 1009.31 1009.43 1010.90 1012.65 1012.96 1013.08 1013.45 1014.41 1015.09 1015.73 1016.07 1016.25 1016.38 1016.51 1016.53 1016.56 1016.53 1016.55 1016.55 1016.58 1016.58 1016.59 1016.46 1016.34 1016.31 1016.22 1016.22 1016.18 1015.99 1015.87 1015.74 1015.69 1015.61 1015.54
1009.45 1009.37 1008.49 1006.34 1004.64 1002.54 1003.00 1004.85 1005.72 1006.78 1008.12 1008.82 1009.08 1008.94 1009.00 1009.93 1010.64 1011.72 1012.36 1013.17 1013.39 1013.96 1014.34 1015.05 1015.86 1016.24 1016.51 1016.64 1016.75 1016.74 1016.69 1016.71 1016.67 1016.61 1016.58 1016.59 1016.55 1016.40 1016.45 1016.38 1016.34 1016.18 1016.08 1015.98 1015.81 1015.70 1015.62 1015.57 1015.54
1009.49 1009.06 1006.91 1004.92 1003.63 1002.44 1003.13 1004.84 1005.90 1007.53 1008.44 1008.79 1008.74 1009.01 1009.23 1010.53 1011.16 1011.62 1012.55 1013.29 1013.72 1014.24 1014.62 1015.58 1016.07 1016.49 1016.76 1016.73 1016.77 1016.82 1016.78 1016.88 1016.83 1016.82 1016.74 1016.62 1016.60 1016.56 1016.52 1016.37 1016.29 1016.14 1016.11 1016.03 1015.93 1015.76 1015.68 1015.53 1015.42
1008.72 1007.82 1006.55 1004.77 1002.95 1003.50 1004.58 1005.32 1006.62 1007.40 1008.45 1008.71 1008.34 1009.13 1010.56 1011.19 1011.37 1012.02 1013.10 1013.42 1013.86 1014.24 1014.49 1016.16 1016.46 1016.62 1016.74 1016.93 1017.02 1017.09 1017.01 1016.94 1016.98 1016.88 1016.84 1016.73 1016.71 1016.70 1016.54 1016.54 1016.40 1016.31 1016.18 1016.04 1015.92 1015.89 1015.67 1015.68 1015.49
1008.28 1006.55 1004.68 1003.79 1003.26 1004.24 1005.23 1006.39 1006.75 1007.25 1008.02 1008.13 1008.32 1009.17 1010.44 1011.78 1012.16 1012.68 1013.17 1013.39 1013.53 1013.81 1014.71 1015.76 1016.58 1016.66 1016.95 1017.07 1017.32 1017.22 1017.32 1017.31 1017.25 1017.21 1017.17 1017.24 1017.01 1016.92 1016.87 1016.66 1016.67 1016.52 1016.45 1016.28 1016.10 1015.99 1015.93 1015.67 1015.46
1006.66 1005.82 1004.12 1003.03 1003.33 1004.67 1005.31 1006.11 1006.69 1006.97 1007.55 1008.19 1008.32 1009.05 1010.56 1012.07 1012.37 1012.74 1013.04 1013.19 1013.41 1013.93 1014.41 1015.82 1016.68 1016.80 1017.02 1017.26 1017.50 1017.70 1017.80 1017.75 1017.72 1017.55 1017.55 1017.57 1017.38 1017.43 1017.40 1017.16 1017.19 1016.99 1016.72 1016.62 1016.39 1016.28 1016.09 1015.85 1015.68
1006.14 1004.77 1003.44 1002.99 1003.03 1003.91 1004.84 1005.97 1006.37 1006.72 1007.36 1007.52 1007.85 1008.45 1010.67 1011.41 1012.06 1012.62 1013.02 1013.32 1013.61 1014.02 1014.36 1015.21 1015.87 1016.90 1017.21 1017.60 1017.78 1017.93 1018.04 1018.00 1018.05 1018.01 1018.00 1017.95 1017.80 1017.72 1017.63 1017.64 1017.54 1017.35 1017.05 1016.94 1016.68 1016.47 1016.34 1016.03 1015.76
1005.98 1004.78 1003.60 1003.38 1003.07 1003.26 1005.19 1005.92 1006.34 1006.87 1006.87 1007.71 1007.75 1008.18 1009.97 1011.12 1011.97 1012.62 1012.95 1013.34 1013.70 1013.94 1014.11 1014.42 1015.33 1015.80 1016.31 1017.18 1018.01 1018.17 1018.25 1018.29 1018.31 1018.41 1018.08 1017.90 1017.64 1017.71 1017.70 1017.58 1017.88 1017.55 1017.38 1017.10 1016.84 1016.75 1016.45 1016.06 1015.69
1006.28 1004.74 1003.12 1002.82 1003.15 1003.25 1005.02 1005.53 1006.52 1007.07 1007.14 1007.59 1007.93 1008.28 1009.31 1011.24 1011.85 1012.23 1012.70 1013.13 1013.56 1013.97 1014.34 1014.43 1015.12 1015.48 1016.43 1016.87 1017.82 1018.05 1018.15 1018.23 1018.20 1018.00 1018.25 1017.61 1017.52 1017.54 1017.15 1017.97 1017.94 1017.82 1017.46 1017.21 1016.98 1016.66 1016.39 1015.91 1015.20
1005.70 1004.22 1003.01 1002.88 1003.16 1003.38 1004.59 1005.24 1006.00 1006.88 1006.93 1007.33 1008.33 1008.93 1010.12 1011.17 1011.57 1011.89 1012.41 1012.95 1013.51 1014.20 1014.56 1014.94 1015.59 1016.05 1016.43 1016.73 1017.27 1017.65 1017.86 1018.32 1018.48 1018.47 1018.40 1017.82 1018.15 1018.14 1017.87 1017.52 1017.61 1017.36 1017.28 1016.79 1016.68 1016.37 1015.93 1015.29 1014.38
1005.27 1003.89 1003.21 1003.34 1003.65 1004.08 1004.54 1005.19 1005.77 1006.32 1006.15 1006.66 1007.78 1008.95 1010.17 1010.85 1011.34 1011.78 1012.49 1012.99 1013.53 1014.30 1015.09 1015.34 1016.24 1016.38 1016.57 1016.90 1017.35 1017.61 1017.97 1018.24 1018.62 1018.72 1018.67 1018.60 1018.23 1018.30 1017.63 1017.34 1017.08 1017.01 1016.67 1016.27 1016.06 1015.67 1015.35 1015.66 1015.13
1005.10 1004.45 1003.77 1003.66 1004.14 1004.63 1004.69 1005.00 1005.55 1005.88 1005.77 1006.26 1007.36 1008.88 1009.81 1010.49 1011.15 1011.91 1012.80 1013.48 1014.26 1015.13 1015.78 1016.16 1016.42 1016.91 1017.23 1017.37 1017.40 1017.99 1018.14 1018.44 1018.42 1018.92 1018.99 1018.87 1018.54 1018.59 1018.29 1017.87 1017.48 1017.26 1016.89 1016.77 1016.33 1015.94 1016.12 1015.72 1015.31
1005.05 1004.08 1004.26 1004.40 1004.90 1004.72 1005.04 1005.00 1005.18 1005.57 1006.48 1006.77 1007.32 1008.79 1009.63 1010.33 1011.13 1011.91 1012.99 1014.12 1014.78 1015.43 1016.25 1016.74 1017.13 1017.57 1018.17 1018.44 1018.36 1018.53 1018.37 1018.73 1018.92 1018.93 1019.57 1019.40 1019.09 1019.04 1018.41 1018.16 1017.61 1017.37 1017.18 1016.86 1016.55 1016.18 1016.09 1015.62 1015.03
1004.56 1004.44 1004.37 1004.58 1004.64 1005.04 1005.21 1005.00 1005.31 1005.18 1006.04 1007.07 1007.88 1008.62 1009.39 1010.10 1011.00 1011.91 1012.86 1013.82 1014.68 1015.71 1016.59 1017.09 1017.68 1018.11 1018.50 1018.93 1018.69 1018.85 1019.13 1019.35 1019.29 1019.55 1019.89 1019.77 1019.40 1019.26 1018.43 1018.22 1017.77 1017.62 1017.62 1017.38 1016.85 1016.55 1016.10 1015.55 1014.95
1005.12 1004.77 1004.54 1004.49 1004.71 1004.89 1005.39 1005.40 1005.18 1005.16 1005.97 1007.00 1007.76 1008.46 1009.14 1009.92 1010.89 1011.87 1012.69 1013.77 1014.66 1015.63 1016.40 1017.24 1017.76 1018.36 1018.69 1019.24 1019.09 1018.95 1019.21 1019.41 1019.51 1019.61 1020.09 1019.99 1019.86 1019.42 1018.81 1018.29 1018.11 1018.19 1017.92 1017.53 1017.02 1016.73 1016.10 1015.69 1015.08
1004.91 1004.62 1003.60 1003.60 1004.74 1005.01 1005.51 1003.61 1003.87 1004.82 1006.15 1006.74 1007.72 1008.37 1009.14 1009.97 1011.05 1012.19 1013.12 1013.90 1014.72 1015.50 1016.43 1016.69 1017.39 1018.24 1018.85 1019.32 1019.02 1019.13 1019.69 1019.74 1019.65 1019.70 1019.80 1020.10 1019.91 1019.66 1019.03 1018.67 1018.84 1018.75 1018.03 1017.61 1017.20 1016.96 1016.35 1016.38 1015.83
1004.61 1003.24 1003.14 1003.15 1004.20 1004.33 1004.82 1003.41 1003.37 1004.99 1005.95 1006.49 1007.53 1008.44 1009.55 1011.19 1012.10 1012.98 1014.29 1015.12 1015.87 1016.64 1017.11 1016.89 1017.70 1018.34 1018.79 1019.23 1019.36 1019.64 1020.15 1019.91 1019.93 1019.87 1019.97 1020.23 1020.08 1019.97 1019.42 1019.39 1019.34 1018.77 1018.18 1017.84 1017.60 1017.28 1017.06 1016.68 1016.33
1003.21 1003.40 1003.27 1003.02 1003.88 1004.37 1003.93 1003.54 1004.20 1005.27 1005.63 1006.08 1007.21 1008.35 1010.23 1011.60 1012.46 1013.27 1014.40 1015.24 1015.87 1017.02 1016.84 1017.19 1017.99 1018.48 1018.88 1019.11 1019.33 1019.57 1019.94 1020.07 1020.07 1020.08 1020.29 1020.36 1020.25 1020.24 1019.75 1019.63 1019.73 1019.09 1018.71 1018.40 1018.25 1018.03 1017.86 1017.44 1017.09
1004.54 1003.97 1003.16 1003.49 1003.91 1003.94 1003.39 1003.35 1003.51 1004.78 1005.42 1005.70 1006.52 1007.69 1009.23 1010.49 1011.80 1012.95 1014.26 1015.09 1016.09 1016.69 1017.35 1018.00 1018.39 1018.94 1018.74 1018.67 1018.78 1019.33 1019.52 1020.02 1020.11 1020.36 1020.63 1020.57 1020.55 1020.41 1020.20 1019.72 1019.78 1019.24 1019.51 1019.39 1018.93 1018.13 1018.07 1017.74 1017.53
1004.92 1004.25 1003.76 1003.77 1004.10 1003.93 1002.95 1002.90 1002.93 1003.54 1004.54 1005.21 1005.91 1006.93 1008.29 1009.71 1010.98 1012.80 1013.84 1014.97 1015.83 1016.35 1016.90 1017.81 1018.27 1018.85 1018.66 1018.73 1019.10 1019.26 1019.58 1019.94 1020.09 1020.51 1020.90 1020.88 1020.81 1020.77 1020.54 1020.43 1020.34 1020.28 1019.73 1019.95 1019.59 1019.08 1017.92 1018.02 1018.08
1004.70 1004.26 1003.76 1003.77 1004.09 1004.08 1003.56 1002.74 1002.68 1002.99 1003.79 1004.61 1005.23 1006.13 1007.39 1009.06 1010.56 1012.82 1013.55 1014.63 1015.51 1016.04 1016.62 1017.51 1017.93 1018.42 1018.72 1019.04 1019.44 1019.64 1020.02 1020.08 1020.10 1020.44 1020.59 1021.07 1021.10 1021.01 1021.01 1021.03 1020.96 1020.66 1020.19 1020.18 1020.09 1019.64 1019.26 1018.00 1018.16
1003.99 1004.05 1004.18 1004.00 1003.93 1002.71 1003.00 1001.68 1001.07 1001.91 1002.64 1003.43 1004.12 1005.21 1006.32 1008.17 1010.25 1012.18 1013.25 1014.17 1014.83 1015.72 1016.44 1017.27 1017.78 1018.35 1018.84 1019.12 1019.03 1019.10 1018.92 1019.27 1019.89 1020.31 1020.86 1021.14 1021.26 1021.24 1021.28 1021.38 1021.35 1021.24 1020.71 1020.64 1020.36 1020.22 1019.67 1019.06 1018.51
1003.94 1004.57 1004.33 1004.04 1003.61 1003.00 1002.55 1002.27 1000.69 1001.48 1001.71 1001.83 1002.50 1003.74 1005.37 1006.75 1009.56 1011.12 1012.92 1013.84 1014.56 1015.61 1016.32 1017.04 1017.70 1018.27 1018.78 1018.97 1019.01 1019.10 1019.16 1020.04 1020.23 1020.51 1021.02 1021.35 1021.55 1021.45 1021.42 1021.51 1021.56 1021.48 1020.94 1021.22 1020.94 1020.67 1020.42 1019.81 1019.37
1004.49 1004.46 1004.16 1003.96 1003.15 1002.31 1001.84 1001.17 1000.10 999.70 1000.52 1000.48 1001.23 1002.44 1004.24 1005.73 1008.54 1010.53 1012.47 1013.43 1014.43 1015.35 1016.12 1016.75 1017.42 1018.15 1018.68 1018.97 1019.25 1019.33 1019.69 1019.85 1020.16 1020.44 1020.63 1020.73 1020.97 1021.27 1021.67 1021.59 1021.59 1021.58 1021.30 1021.32 1021.09 1021.00 1021.05 1020.85 1020.58
1004.26 1003.90 1002.99 1002.64 1002.02 1001.18 1000.97 1000.69 1000.13 999.29 999.66 999.85 999.87 1001.23 1002.99 1004.92 1007.81 1009.89 1011.48 1012.33 1013.69 1014.82 1015.36 1016.26 1016.93 1017.81 1018.43 1018.89 1019.22 1019.60 1019.95 1020.21 1020.52 1020.71 1020.43 1020.68 1020.81 1020.96 1021.77 1021.71 1021.69 1021.35 1021.44 1021.33 1021.27 1021.34 1021.27 1021.21 1020.99
1003.34 1003.25 1002.41 1001.62 1001.15 1000.49 1001.03 1000.34 999.55 999.44 999.39 999.93 1000.30 1001.09 1002.11 1004.12 1007.19 1009.14 1010.41 1011.58 1012.79 1013.85 1014.83 1015.73 1016.58 1017.42 1018.18 1018.73 1019.16 1019.58 1020.02 1020.10 1020.30 1020.55 1020.64 1020.71 1020.76 1021.06 1021.65 1021.68 1021.66 1021.62 1021.49 1021.33 1021.29 1020.89 1021.03 1021.34 1021.24
1002.98 1003.23 1002.90 1002.86 1002.52 1001.87 1000.72 999.72 999.79 999.20 999.23 999.44 999.92 1000.65 1001.58 1003.51 1006.27 1008.40 1009.63 1010.84 1011.90 1012.71 1013.97 1015.08 1016.15 1017.08 1017.95 1018.55 1019.05 1019.51 1019.95 1020.08 1020.10 1020.79 1021.17 1021.13 1021.24 1021.14 1021.49 1021.65 1021.83 1021.77 1021.54 1021.46 1021.32 1021.18 1021.28 1021.35 1021.34
1003.93 1003.90 1003.41 1002.93 1002.30 1001.29 1000.37 999.55 999.18 998.73 998.55 998.35 998.78 1000.06 1001.22 1003.31 1005.46 1007.08 1008.83 1010.02 1011.09 1012.27 1013.58 1014.74 1015.78 1016.68 1017.55 1018.27 1018.86 1019.38 1019.80 1020.14 1020.48 1020.84 1020.95 1021.13 1021.26 1021.35 1021.60 1021.68 1021.60 1021.81 1021.83 1021.58 1021.44 1021.21 1021.46 1021.40 1021.13
1004.08 1003.68 1003.86 1003.89 1003.20 1001.86 1000.82 999.64 999.00 999.44 999.19 999.23 998.55 999.07 1001.10 1002.97 1004.61 1005.99 1007.67 1009.36 1010.55 1011.70 1012.82 1014.30 1015.34 1016.26 1017.10 1017.84 1018.59 1019.12 1019.48 1020.05 1020.46 1020.63 1020.86 1021.08 1021.31 1021.40 1021.48 1021.55 1021.48 1021.42 1021.61 1021.67 1021.57 1021.47 1021.33 1021.23 1021.25
1005.33 1004.67 1004.76 1004.14 1003.37 1002.94 1002.29 1000.58 999.90 999.96 999.86 999.67 999.72 999.62 1000.62 1002.66 1003.94 1005.23 1006.70 1008.52 1010.08 1011.11 1012.30 1013.73 1014.73 1015.65 1016.53 1017.36 1018.26 1018.86 1019.28 1019.82 1020.13 1020.33 1020.58 1020.82 1021.13 1021.24 1021.36 1021.46 1021.59 1021.42 1021.44 1021.66 1021.60 1021.37 1021.25 1021.17 1021.09
Wind_Speed
10 9 5 6 10 7 3 5 6 7 6 5 4 2 6 9 10 6 11 8 12 12 13 12 11 10 10 10 10 10 10 10 10 10 9 9 8 8 8 7 6 6 6 5 5 5 6 6 6
6 4 6 5 10 9 9 7 2 8 8 9 5 5 2 7 8 13 12 12 12 12 11 11 12 11 10 10 10 10 10 9 9 8 8 7 7 8 7 7 7 6 6 6 5 5 6 6 7
5 6 8 5 6 5 5 5 7 11 8 4 5 4 4 7 10 6 16 14 13 11 10 13 12 11 10 11 11 10 10 9 9 9 8 8 8 8 7 7 7 7 7 7 6 6 6 6 6
5 6 6 11 7 6 3 3 8 10 6 3 5 10 9 10 6 9 14 14 13 12 13 13 11 11 12 11 11 11 12 10 10 11 10 10 10 10 8 7 7 8 8 7 6 7 8 8 7
6 5 8 10 5 2 2 2 7 7 5 7 2 8 10 10 13 15 14 12 12 12 14 14 11 13 11 13 12 13 13 14 14 14 14 13 14 13 13 13 12 11 11 11 11 10 10 10 7
8 5 9 10 8 1 3 5 8 8 4 8 7 12 10 12 14 14 13 12 12 11 12 13 12 12 14 13 14 14 14 15 14 14 14 13 13 13 13 14 13 12 11 11 11 10 10 9 8
14 8 10 7 5 6 3 7 10 8 6 5 10 8 11 13 14 13 12 12 11 11 12 13 14 14 14 15 14 14 15 15 15 15 13 12 12 12 12 12 13 12 12 11 10 10 10 9 8
9 7 7 9 8 3 7 9 6 8 6 8 8 7 10 15 15 14 13 12 12 11 11 11 12 13 12 13 14 15 15 15 15 14 12 8 7 6 9 12 13 13 12 11 11 11 11 10 8
8 10 11 11 10 5 10 10 7 3 6 7 8 3 17 18 16 15 13 12 11 9 9 10 10 9 10 10 11 14 13 11 8 9 9 4 8 9 8 10 11 11 12 9 10 10 11 12 15
12 12 13 5 7 6 7 9 11 8 11 9 10 9 20 19 17 16 14 12 12 11 10 9 7 10 8 6 7 7 8 8 8 8 8 7 7 7 8 5 5 7 10 8 8 7 11 13 9
15 14 11 7 8 5 4 9 9 12 13 11 15 18 20 17 16 14 12 10 10 9 7 8 7 5 5 6 4 3 4 4 5 9 9 7 6 7 7 6 7 8 8 7 9 8 7 11 10
12 17 12 10 3 7 8 3 11 13 3 8 14 17 20 18 17 14 12 9 9 7 6 5 7 5 4 4 3 5 4 4 5 7 9 6 5 7 7 6 8 7 7 8 8 6 9 10 10
16 9 13 6 4 9 4 10 12 15 8 6 14 16 18 17 15 14 13 11 9 9 7 6 5 5 6 4 5 4 4 5 5 6 8 7 6 7 7 7 6 7 8 8 8 8 8 9 10
10 8 5 7 11 8 10 9 10 12 15 11 16 17 15 17 17 15 14 13 11 9 8 7 7 5 6 5 6 4 4 4 4 5 6 7 7 7 6 6 7 7 7 8 8 8 8 8 8
4 11 10 11 7 7 7 8 14 5 12 13 15 16 15 17 17 16 13 14 13 12 12 10 8 6 6 5 5 4 3 3 4 5 7 8 7 6 7 6 7 8 7 8 7 8 7 9 8
11 9 12 13 9 6 10 16 20 14 14 15 15 15 16 17 17 17 17 17 16 14 12 14 8 8 6 5 4 4 4 3 4 5 5 7 7 7 6 7 8 8 6 7 7 8 7 7 8
10 12 14 10 11 7 15 16 8 10 14 15 16 16 14 13 14 14 13 10 10 10 12 10 10 9 8 7 6 6 5 3 4 4 5 6 7 7 6 7 8 8 8 7 7 7 7 4 7
9 13 6 10 12 13 15 18 6 9 14 15 15 16 15 16 18 15 12 12 12 11 10 11 9 10 9 7 6 5 4 3 3 4 5 6 6 7 6 7 8 8 8 7 7 8 5 5 5
7 8 6 4 2 11 14 16 13 10 13 15 16 17 18 17 17 15 14 13 12 10 11 9 10 9 8 7 6 5 3 3 4 5 6 6 6 7 6 7 8 7 9 8 9 6 9 6 7
6 9 11 3 4 9 10 12 11 10 14 15 16 17 17 16 18 14 15 13 12 13 12 11 11 10 6 5 3 3 3 4 5 5 6 6 7 7 6 7 7 9 7 9 9 9 5 7 9
9 9 8 12 6 8 6 13 13 14 14 15 18 15 17 18 19 15 16 14 13 13 14 11 11 10 7 6 6 5 5 5 5 5 5 6 6 7 7 7 7 6 7 8 9 9 10 5 6
10 5 7 7 10 12 12 13 14 12 16 18 20 19 18 19 19 18 17 17 15 14 12 11 10 9 9 8 6 4 2 4 5 4 6 5 6 6 7 6 6 6 7 8 8 8 7 10 7
3 2 5 7 10 15 13 11 13 5 12 18 20 20 20 20 21 20 18 16 15 14 12 12 12 10 9 7 5 6 5 7 5 5 6 6 5 6 6 6 6 6 7 7 8 9 10 8 8
4 10 8 8 12 13 18 14 14 12 12 14 14 18 19 20 20 19 18 18 16 14 14 13 13 11 9 8 8 6 8 7 6 6 5 4 5 6 4 4 4 4 3 5 6 6 8 7 9
9 11 10 11 10 13 2 7 12 10 7 11 10 11 18 20 20 19 22 21 19 18 17 14 15 13 11 10 9 10 9 8 8 7 4 3 4 4 5 3 3 4 4 4 5 5 5 6 7
6 5 9 7 9 7 7 8 10 8 8 9 7 8 14 20 20 22 24 21 19 19 18 16 16 13 12 11 11 10 10 7 6 4 4 3 3 3 4 3 2 3 3 3 2 5 4 4 5
5 10 5 9 10 10 14 11 8 14 12 12 11 11 14 20 22 22 22 21 22 21 20 18 17 14 13 12 11 11 9 7 5 6 5 5 2 5 4 2 3 4 3 0 2 6 4 3 3
9 7 6 11 14 18 12 9 9 7 8 11 8 11 13 18 20 20 20 21 19 19 18 17 16 16 14 13 11 10 10 8 8 7 6 4 4 3 4 2 1 3 3 1 3 5 5 2 2
5 10 6 7 9 11 14 11 1 6 12 16 20 11 12 16 18 19 20 20 19 19 20 18 17 17 15 13 12 12 10 9 8 7 7 6 5 5 5 2 1 2 1 2 2 0 1 1 2
9 6 6 8 8 9 8 12 17 13 13 14 12 15 8 14 17 18 20 22 21 20 20 19 18 17 15 13 13 12 11 10 10 9 8 7 6 5 4 3 2 1 1 3 3 3 2 4 5
Wind_Direction
170 199 238 236 240 243 148 103 70 125 135 91 65 295 43 21 4 38 136 122 127 119 125 145 131 130 132 123 117 114 111 102 93 86 78 71 63 59 58 51 45 31 17 10 0 354 346 342 336
171 205 227 272 257 227 100 79 177 76 105 126 114 126 128 67 57 115 136 134 125 125 125 118 115 118 118 112 108 103 93 87 85 82 80 76 69 64 56 49 38 30 16 0 350 345 336 326 319
201 242 264 255 261 292 40 124 108 114 132 174 125 60 55 79 112 94 109 130 123 122 120 110 107 112 115 112 100 92 85 80 75 70 64 62 59 54 47 46 40 34 24 11 355 345 330 320 312
203 198 218 250 226 77 360 82 124 141 122 195 125 97 95 52 123 113 133 132 129 139 117 112 118 121 110 98 93 85 76 81 83 72 69 72 66 57 48 35 32 25 15 8 1 353 349 330 322
222 252 246 238 215 55 132 134 160 140 135 146 193 112 103 92 110 127 136 143 138 131 125 129 124 110 112 101 93 86 79 73 72 65 61 57 54 50 50 47 43 38 32 31 32 27 15 6 338
225 277 237 221 177 98 172 180 173 185 133 128 138 128 92 123 134 141 144 141 135 137 123 134 120 123 106 106 93 82 77 70 65 63 58 57 54 52 45 43 36 31 31 25 21 13 10 8 5
255 230 256 287 163 217 144 185 186 181 163 156 137 126 121 153 136 138 143 136 140 137 135 139 136 113 113 98 90 83 75 70 64 58 55 57 54 50 44 46 28 24 19 13 10 7 2 358 354
257 266 232 229 203 204 123 180 196 193 147 118 170 147 159 138 146 144 147 146 146 149 142 138 136 141 125 116 95 87 77 70 64 56 51 31 94 42 54 11 27 16 11 10 8 358 349 337 319
244 240 235 215 222 210 130 189 163 178 176 181 162 145 129 146 150 152 151 152 153 142 134 131 130 130 126 120 113 114 97 86 72 65 43 47 32 18 21 50 16 6 4 357 354 348 333 312 272
223 230 234 236 212 248 148 209 158 184 187 172 144 131 133 151 160 159 159 159 153 146 152 126 146 130 129 112 101 89 73 57 47 45 36 34 30 21 352 25 13 356 3 317 343 317 300 267 318
218 247 236 217 249 260 185 204 174 215 190 188 171 147 155 163 166 161 154 158 141 139 127 133 128 141 133 123 107 88 78 67 71 49 24 43 18 7 3 355 352 348 4 349 337 328 341 337 323
235 235 261 239 144 221 220 223 204 226 69 176 173 161 165 168 168 162 154 148 139 149 127 146 145 143 107 115 123 102 85 67 53 53 20 23 13 3 358 4 350 350 352 350 346 341 340 328 318
229 238 232 215 233 228 213 238 220 213 127 180 160 167 174 175 167 160 152 150 151 149 146 144 150 135 138 141 78 66 72 58 61 53 42 14 6 358 8 7 5 8 356 355 347 352 344 329 326
203 229 224 221 230 211 228 230 214 222 165 168 166 176 175 177 173 159 164 159 161 136 134 128 122 123 90 101 96 89 71 97 65 58 38 28 3 6 8 13 13 12 7 356 347 354 339 332 332
207 215 213 214 208 215 240 208 227 197 165 186 186 186 178 182 173 173 170 163 152 153 142 135 140 130 114 100 102 85 95 88 67 65 48 31 16 19 348 22 15 12 2 350 1 349 346 16 2
218 237 216 184 193 166 219 240 204 184 189 186 190 185 184 182 180 170 178 172 171 156 155 145 139 138 142 142 123 107 93 70 58 42 45 28 30 18 24 25 23 358 4 4 3 10 6 13 34
211 239 215 169 201 180 216 242 106 157 198 193 190 188 182 178 191 185 177 171 149 152 147 119 147 155 146 137 120 105 109 72 54 41 44 43 43 32 20 27 28 354 5 16 14 18 41 33 43
210 231 218 243 175 219 211 244 125 194 203 203 196 190 190 193 200 191 180 165 158 153 138 131 149 147 148 144 135 115 121 99 59 51 56 40 53 42 8 54 23 12 21 36 17 26 37 11 17
309 290 260 113 180 225 228 225 203 190 209 213 205 201 196 200 194 186 172 165 164 133 123 153 144 155 164 160 151 161 124 126 89 84 66 60 43 46 21 42 26 33 36 28 17 1 51 26 353
244 245 239 207 233 240 206 235 233 192 224 223 219 215 205 193 185 166 173 167 164 153 153 159 166 168 169 155 126 107 136 83 83 87 79 62 60 42 63 33 47 11 60 31 26 17 2 50 37
224 261 259 265 148 245 272 247 241 234 229 231 235 222 211 185 188 181 180 171 171 167 164 173 168 163 175 138 140 131 130 143 141 139 106 70 62 63 67 59 45 55 29 50 27 15 15 24 66
248 195 245 233 235 242 193 260 205 219 227 229 230 222 213 182 204 186 183 177 173 172 167 171 164 165 164 179 161 169 134 146 88 115 83 96 72 78 78 71 66 38 51 34 43 34 31 357 23
25 185 286 252 243 261 215 249 267 197 236 242 229 219 215 193 193 187 185 172 179 162 172 164 162 165 155 163 168 163 150 131 150 125 135 81 98 93 91 88 74 47 42 56 45 43 26 47 23
295 259 233 248 244 230 241 231 260 197 233 240 224 221 209 203 188 180 184 182 166 169 176 168 162 162 163 159 151 151 144 147 145 148 155 136 130 132 79 74 61 34 14 47 52 42 51 42 30
226 244 243 212 208 243 181 252 258 282 231 258 257 215 202 196 174 178 183 185 173 179 177 169 167 165 162 158 153 152 150 156 150 173 154 160 147 140 111 82 29 41 28 68 28 43 65 49 42
209 283 288 283 265 253 155 250 250 261 288 274 277 252 197 187 169 188 189 183 178 181 176 174 169 166 165 161 156 153 154 164 161 189 140 165 139 150 152 123 70 24 5 54 19 68 42 64 71
149 234 330 289 258 267 278 258 241 237 244 254 254 223 199 182 178 194 193 187 182 175 176 175 172 167 169 164 161 158 171 163 146 146 182 170 172 135 158 145 26 1 351 351 259 62 76 89 73
270 5 235 220 253 264 257 242 273 293 277 278 232 224 193 178 190 188 187 187 187 174 170 174 173 171 170 166 166 163 165 170 162 171 198 182 143 185 166 168 35 7 339 200 266 171 105 101 53
266 236 218 305 304 290 274 265 72 305 326 332 313 198 180 180 188 186 182 182 183 175 168 173 173 172 171 170 172 167 166 171 176 173 166 167 163 172 197 202 189 45 11 201 192 97 144 33 349
262 291 287 274 239 240 300 292 310 294 308 316 315 305 176 184 187 181 180 176 177 179 169 172 174 174 173 170 173 173 166 173 173 172 172 166 177 179 190 197 250 43 90 188 219 242 309 307 310